Weather reports worldwide

Advertisment
Grünow, Germany (10289): temperature & dewpoint: 18.06.2018 15:00:00 - 24.06.2018 15:00:00 (CEST)Grünow, Germany (10289): temperature 5cm & temperature -5cm: 18.06.2018 15:00:00 - 24.06.2018 15:00:00 (CEST)Grünow, Germany (10289): temperature -20cm & temperature -100cm: 18.06.2018 15:00:00 - 24.06.2018 15:00:00 (CEST)Grünow, Germany (10289): wind speed & gusts: 18.06.2018 15:00:00 - 24.06.2018 15:00:00 (CEST)Grünow, Germany (10289): wind direction: 18.06.2018 15:00:00 - 24.06.2018 15:00:00 (CEST)Grünow, Germany (10289): reduced air pressure: 18.06.2018 15:00:00 - 24.06.2018 15:00:00 (CEST)Grünow, Germany (10289): visibility: 18.06.2018 15:00:00 - 24.06.2018 15:00:00 (CEST)Grünow, Germany (10289): sunshine duration: 18.06.2018 15:00:00 - 24.06.2018 15:00:00 (CEST)Grünow, Germany (10289): precipitation: 18.06.2018 15:00:00 - 24.06.2018 15:00:00 (CEST)
Date & Time tt [°C] td [°C] tt 5cm [°C] tt -5cm [°C] tt -20cm [°C] tt -100cm [°C] ff [km/h] ff [kn] fx [km/h] fx [kn] dd ppp [hPa] vv [km] sd [min] rr [mm]
24.06.2018 15:00:00 - - - - - - - - - - - - - - -
24.06.2018 14:00:00 18,4 8,9 22,5 23,9 17,5 16,7 20 11 32 18 W 1016,9 51 13 0,0
24.06.2018 13:00:00 17,0 10,1 20,5 22,9 17,1 16,7 16 9 27 14 WNW 1016,9 53 15 0,0
24.06.2018 12:00:00 15,8 9,5 18,0 21,6 16,8 16,7 15 8 27 15 WNW 1017,1 70 8 0,0
24.06.2018 11:00:00 15,5 9,7 18,2 19,5 16,6 16,8 16 8 25 14 WNW 1017,0 53 0 0,0
24.06.2018 10:00:00 14,3 9,4 16,2 17,4 16,5 16,8 15 8 26 14 WNW 1017,0 68 0 0,0
24.06.2018 09:00:00 14,3 9,7 15,6 17,1 16,4 16,8 14 8 28 15 WNW 1016,6 70 3 0,0
24.06.2018 08:00:00 14,2 10,5 16,2 16,1 16,4 16,8 16 9 27 15 W 1016,6 70 11 0,0
24.06.2018 07:00:00 13,0 10,7 13,5 14,9 16,5 16,8 11 6 22 12 WNW 1016,7 61 11 0,0
24.06.2018 06:00:00 12,8 11,0 12,8 14,3 16,7 16,8 11 6 17 9 WNW 1016,7 49 2 0,0
24.06.2018 05:00:00 12,4 11,0 12,0 14,2 16,8 16,8 9 5 21 12 WNW 1016,7 36 0 0,0
24.06.2018 04:00:00 12,5 11,0 12,0 14,3 17,0 16,8 14 7 19 11 WNW 1016,9 42 0 0,0
24.06.2018 03:00:00 11,8 10,7 11,0 14,5 17,2 16,8 8 5 19 11 W 1017,1 31 0 0,0
24.06.2018 02:00:00 12,9 11,2 12,6 15,1 17,4 16,8 14 7 23 12 W 1017,3 49 0 0,0
24.06.2018 01:00:00 13,0 11,0 12,8 15,3 17,7 16,9 13 7 21 11 W 1017,7 61 0 0,0
24.06.2018 00:00:00 13,1 10,5 12,8 15,5 18,0 16,9 16 9 26 14 W 1017,7 70 0 0,0
23.06.2018 23:00:00 13,0 9,9 12,2 16,0 18,2 16,9 16 9 25 13 WNW 1017,5 70 0 0,0
23.06.2018 22:00:00 13,7 9,4 12,9 17,0 18,5 16,9 16 9 30 16 W 1017,4 54 0 0,0
23.06.2018 21:00:00 14,7 9,1 14,5 18,4 18,7 16,9 20 11 34 18 WNW 1017,0 70 0 0,0
23.06.2018 20:00:00 15,7 7,2 15,8 19,7 18,8 17,0 19 10 38 21 WNW 1017,0 70 1 0,0
23.06.2018 19:00:00 16,7 7,2 17,6 21,4 18,7 17,0 21 11 41 22 WNW 1017,0 61 31 0,0
23.06.2018 18:00:00 17,0 7,5 19,4 24,2 18,4 17,0 29 16 46 25 WNW 1017,0 33 57 0,0
23.06.2018 17:00:00 18,3 7,5 21,7 24,3 18,1 17,0 28 15 46 25 WNW 1016,8 28 37 0,0
23.06.2018 16:00:00 19,0 7,9 23,1 24,5 17,7 17,0 31 17 50 27 NW 1016,7 37 30 0,0
23.06.2018 15:00:00 19,2 7,0 22,7 25,1 17,1 17,1 27 14 43 23 WNW 1016,7 70 36 0,0
23.06.2018 14:00:00 18,3 7,0 22,5 24,2 16,6 17,1 30 16 43 23 NW 1016,8 30 37 0,0
23.06.2018 13:00:00 17,3 6,9 19,5 23,3 16,1 17,1 26 14 45 24 NW 1016,8 38 41 0,0
23.06.2018 12:00:00 17,2 7,4 19,6 20,1 15,7 17,1 24 13 41 22 WNW 1016,6 49 30 0,0
23.06.2018 11:00:00 16,1 7,5 18,4 17,7 15,5 17,1 27 14 40 22 WNW 1016,7 41 32 0,0
23.06.2018 10:00:00 14,5 7,4 15,7 15,6 15,4 17,2 22 12 40 22 WNW 1016,8 47 17 0,0
23.06.2018 09:00:00 13,4 7,2 14,4 14,7 15,4 17,2 29 16 42 23 W 1016,9 39 19 0,0
23.06.2018 08:00:00 12,0 7,5 12,4 13,3 15,5 17,2 23 12 36 19 W 1017,0 34 3 0,0
23.06.2018 07:00:00 11,6 7,1 11,4 12,3 15,6 17,2 15 8 34 18 WNW 1016,9 33 0 0,0
23.06.2018 06:00:00 11,8 6,2 11,4 12,2 15,7 17,2 25 13 39 21 W 1016,7 37 0 0,0
23.06.2018 05:00:00 11,9 6,4 11,4 12,4 15,9 17,2 24 13 36 19 W 1016,6 38 0 0,0
23.06.2018 04:00:00 12,0 7,4 11,6 12,6 16,1 17,3 23 13 42 23 W 1016,7 42 0 0,0
23.06.2018 03:00:00 12,1 8,6 11,7 12,9 16,2 17,3 23 12 36 19 W 1016,7 54 0 0,0
23.06.2018 02:00:00 12,5 8,5 12,1 13,2 16,4 17,3 29 16 41 22 W 1016,9 69 0 0,0
23.06.2018 01:00:00 13,0 8,3 12,4 13,3 16,6 17,3 19 11 34 18 W 1017,0 60 0 0,0
23.06.2018 00:00:00 13,2 8,3 12,6 13,5 16,8 17,3 27 14 45 25 W 1017,2 65 0 0,0
22.06.2018 23:00:00 12,6 8,1 11,9 13,7 17,1 17,4 19 10 31 17 W 1016,9 59 0 0,0
22.06.2018 22:00:00 12,5 8,7 11,0 14,5 17,3 17,4 16 9 24 13 W 1016,9 57 0 0,0
22.06.2018 21:00:00 12,6 10,2 11,1 15,4 17,5 17,4 7 4 40 21 W 1016,7 70 0 0,2
22.06.2018 20:00:00 14,7 7,1 13,8 16,3 17,6 17,4 32 17 53 29 WNW 1016,5 70 14 0,0
22.06.2018 19:00:00 18,3 4,6 18,9 18,0 17,6 17,5 23 13 36 19 WNW 1015,8 69 37 0,0
22.06.2018 18:00:00 19,0 6,0 21,0 19,4 17,5 17,5 23 12 43 23 WNW 1015,8 51 48 0,0
22.06.2018 17:00:00 17,8 7,0 19,1 19,9 17,3 17,5 26 14 40 21 WNW 1015,7 68 46 0,0
22.06.2018 16:00:00 17,4 9,1 20,0 20,5 17,1 17,5 16 9 35 19 W 1015,5 51 27 0,0
22.06.2018 15:00:00 13,2 8,8 12,6 19,4 16,9 17,5 11 6 47 25 WNW 1015,7 52 13 1,6
22.06.2018 14:00:00 15,6 6,5 16,7 20,3 16,5 17,6 20 11 41 22 WNW 1015,4 62 33 0,0
22.06.2018 13:00:00 16,3 6,8 18,8 20,3 16,3 17,6 20 11 36 19 W 1015,1 33 48 0,0
22.06.2018 12:00:00 14,2 6,8 15,2 16,3 16,1 17,6 21 11 35 19 W 1015,3 69 1 0,0
22.06.2018 11:00:00 13,4 6,4 14,5 15,8 16,0 17,6 24 13 39 21 W 1015,0 67 10 0,0
22.06.2018 10:00:00 13,8 7,3 15,8 16,4 15,8 17,6 25 14 39 21 WSW 1014,3 35 38 0,0
22.06.2018 09:00:00 12,1 6,7 13,1 14,4 15,8 17,6 29 16 46 25 W 1014,1 53 16 0,0
22.06.2018 08:00:00 11,3 6,8 12,0 12,9 15,8 17,6 27 15 40 22 WSW 1013,7 64 9 0,0
22.06.2018 07:00:00 10,6 7,1 10,9 12,0 16,0 17,6 19 11 30 16 WSW 1013,6 65 33 0,0
22.06.2018 06:00:00 9,6 7,1 9,6 11,1 16,2 17,6 16 9 33 18 WSW 1013,8 57 3 0,0
22.06.2018 05:00:00 8,9 6,7 8,1 10,6 16,4 17,6 21 12 33 18 WSW 1013,8 54 0 0,0
22.06.2018 04:00:00 8,6 6,9 7,6 10,7 16,7 17,6 18 10 32 17 WSW 1013,7 51 0 0,0
22.06.2018 03:00:00 9,1 6,7 8,2 11,0 17,0 17,6 20 11 30 16 WSW 1013,7 63 0 0,0
22.06.2018 02:00:00 9,3 7,0 8,3 11,3 17,3 17,6 17 9 26 14 WSW 1014,1 70 0 0,0
22.06.2018 01:00:00 9,8 6,9 8,7 11,7 17,6 17,6 17 9 34 19 WSW 1014,1 70 0 0,0
22.06.2018 00:00:00 10,5 6,6 9,3 12,1 18,0 17,6 22 12 33 18 WSW 1014,2 70 0 0,0
21.06.2018 23:00:00 10,4 6,8 9,3 12,6 18,3 17,6 18 10 34 18 WSW 1013,9 70 0 0,0
21.06.2018 22:00:00 10,9 6,0 9,8 13,5 18,7 17,6 18 10 37 20 W 1013,8 70 24 0,0
21.06.2018 21:00:00 12,1 6,2 11,8 14,4 19,0 17,6 24 13 50 27 WNW 1013,4 70 39 0,0
21.06.2018 20:00:00 12,3 6,5 12,6 15,5 19,3 17,6 29 16 59 32 WNW 1012,9 43 23 0,0
21.06.2018 19:00:00 13,2 7,0 13,2 16,6 19,5 17,6 33 18 56 31 W 1011,9 70 18 0,0
21.06.2018 18:00:00 14,2 7,5 15,0 17,6 19,7 17,6 30 16 47 25 W 1011,0 50 19 0,0
21.06.2018 17:00:00 12,5 7,9 12,7 17,1 20,0 17,6 29 15 60 33 W 1010,8 70 4 0,1
21.06.2018 16:00:00 13,6 11,3 13,5 18,1 20,2 17,6 21 11 35 19 WSW 1010,1 68 0 0,4
21.06.2018 15:00:00 12,3 11,0 12,2 17,3 20,6 17,6 19 10 35 19 WSW 1010,0 13 0 0,8
21.06.2018 14:00:00 13,5 10,9 13,1 18,5 20,9 17,6 23 12 46 25 WNW 1009,5 70 0 0,0
21.06.2018 13:00:00 14,3 12,1 14,0 20,2 21,0 17,6 33 18 49 26 NW 1008,6 69 0 8,5
21.06.2018 12:00:00 20,8 15,5 18,9 26,3 20,7 17,6 26 14 48 26 WSW 1006,2 11 26 0,3
21.06.2018 11:00:00 25,2 14,2 29,4 25,6 20,4 17,6 26 14 44 24 SW 1006,8 31 58 0,0
21.06.2018 10:00:00 23,9 14,7 27,0 24,0 20,1 17,6 23 12 38 20 SW 1007,6 27 60 0,0
21.06.2018 09:00:00 22,5 14,8 25,5 22,3 20,0 17,6 19 11 28 15 SW 1009,0 19 58 0,0
21.06.2018 08:00:00 19,7 15,0 20,9 19,8 20,1 17,6 10 6 17 9 SSW 1010,0 18 54 0,0
21.06.2018 07:00:00 17,7 14,3 18,4 18,3 20,2 17,6 9 5 13 7 S 1010,8 15 60 0,0
21.06.2018 06:00:00 15,3 13,5 14,1 17,8 20,5 17,6 8 5 11 6 S 1011,5 13 34 0,0
21.06.2018 05:00:00 15,1 13,5 12,9 18,1 20,7 17,6 5 3 21 12 NW 1012,0 14 0 0,0
21.06.2018 04:00:00 15,9 13,2 14,3 18,5 21,0 17,6 11 6 16 9 S 1012,5 18 0 0,0
21.06.2018 03:00:00 16,4 13,5 14,7 18,9 21,3 17,6 11 6 16 8 S 1013,2 18 0 0,0
21.06.2018 02:00:00 16,7 13,8 14,8 19,4 21,6 17,6 11 6 14 8 S 1013,8 18 0 0,0
21.06.2018 01:00:00 16,7 13,9 14,8 20,0 21,8 17,6 11 6 14 8 S 1014,4 20 0 0,0
21.06.2018 00:00:00 17,4 14,2 15,6 20,8 22,1 17,6 9 5 11 6 SSW 1015,0 20 0 0,0
20.06.2018 23:00:00 18,1 14,4 16,3 21,8 22,4 17,6 8 4 9 5 SSW 1015,4 20 0 0,0
20.06.2018 22:00:00 19,6 14,9 16,9 23,1 22,5 17,6 6 4 8 4 SSW 1015,7 24 0 0,0
20.06.2018 21:00:00 22,7 15,1 21,6 24,6 22,6 17,6 6 3 22 12 SW 1015,6 30 36 0,0
20.06.2018 20:00:00 25,1 15,2 26,0 25,9 22,6 17,6 11 6 20 11 SSW 1016,1 36 39 0,0
20.06.2018 19:00:00 25,7 14,5 27,5 27,3 22,4 17,6 18 10 30 16 WSW 1016,7 28 45 0,0
20.06.2018 18:00:00 25,7 14,6 27,7 28,3 22,2 17,6 19 11 31 17 SW 1017,4 34 51 0,0
20.06.2018 17:00:00 25,3 14,2 28,6 27,8 22,0 17,6 18 10 30 16 SW 1018,3 32 12 0,0
20.06.2018 16:00:00 25,1 14,0 28,1 27,8 21,8 17,6 16 9 29 16 SW 1019,0 48 2 0,0
20.06.2018 15:00:00 24,0 13,7 26,5 28,1 21,5 17,6 14 7 29 16 SW 1019,6 41 18 0,0
20.06.2018 14:00:00 23,8 13,9 27,5 27,5 21,2 17,6 17 9 29 16 SW 1020,3 45 8 0,0
20.06.2018 13:00:00 23,9 14,3 30,0 27,1 20,8 17,6 16 9 27 15 SSW 1021,0 35 18 0,0
20.06.2018 12:00:00 23,6 13,5 28,8 27,6 20,3 17,6 15 8 27 14 SSW 1021,5 58 48 0,0
20.06.2018 11:00:00 22,6 13,0 28,3 26,4 19,9 17,5 18 10 30 16 SSW 1022,1 38 50 0,0
20.06.2018 10:00:00 21,0 12,2 25,4 24,5 19,6 17,5 13 7 22 12 W 1022,5 33 59 0,0
20.06.2018 09:00:00 19,3 9,9 23,4 21,6 19,5 17,5 9 5 17 9 WNW 1022,7 31 60 0,0
20.06.2018 08:00:00 17,9 8,1 20,0 18,8 19,6 17,5 12 7 20 11 NW 1022,9 34 60 0,0
20.06.2018 07:00:00 16,7 10,7 17,5 17,3 19,8 17,5 10 5 15 8 WSW 1022,9 59 60 0,0
20.06.2018 06:00:00 14,1 10,0 12,8 16,7 20,1 17,5 10 5 13 7 SW 1022,9 55 51 0,0
20.06.2018 05:00:00 13,4 9,3 10,5 16,9 20,3 17,5 9 5 12 6 WSW 1022,6 70 0 0,0
20.06.2018 04:00:00 13,0 9,4 9,2 17,5 20,6 17,5 7 4 21 11 W 1022,6 70 0 0,0
20.06.2018 03:00:00 13,8 10,2 11,2 18,2 20,9 17,5 11 6 18 10 W 1022,6 70 0 0,0
20.06.2018 02:00:00 15,2 10,5 13,3 19,0 21,2 17,5 13 7 23 12 W 1022,6 70 0 0,0
20.06.2018 01:00:00 17,1 10,6 15,8 19,8 21,4 17,5 16 9 30 16 WNW 1022,5 70 0 0,0
20.06.2018 00:00:00 18,8 13,1 17,7 20,5 21,6 17,5 18 10 31 17 WNW 1022,1 52 0 0,0
19.06.2018 23:00:00 19,1 14,3 18,6 21,2 21,8 17,5 13 7 18 10 W 1021,5 40 0 0,0
19.06.2018 22:00:00 18,3 13,7 16,4 21,9 22,0 17,5 10 5 18 10 W 1021,2 18 0 0,0
19.06.2018 21:00:00 21,0 13,5 20,2 23,3 22,1 17,5 14 8 26 14 W 1020,6 56 58 0,0
19.06.2018 20:00:00 22,4 12,7 22,7 24,8 22,1 17,5 19 11 34 18 W 1020,5 48 55 0,0
19.06.2018 19:00:00 23,1 13,2 24,6 25,9 22,0 17,5 22 12 34 18 W 1020,4 51 50 0,0
19.06.2018 18:00:00 23,9 14,0 26,4 26,3 21,9 17,5 25 13 39 21 W 1020,3 31 35 0,0
19.06.2018 17:00:00 22,7 13,5 24,6 25,5 21,8 17,5 23 12 34 19 W 1020,4 42 0 0,0
19.06.2018 16:00:00 22,5 13,9 24,2 25,9 21,7 17,5 19 10 32 17 W 1020,5 30 0 0,0
19.06.2018 15:00:00 22,6 13,4 24,7 27,6 21,4 17,5 20 11 32 17 W 1020,0 36 11 0,0
19.06.2018 14:00:00 22,4 13,0 25,2 28,1 21,1 17,5 21 11 36 19 W 1019,8 25 30 0,0
19.06.2018 13:00:00 22,2 12,6 25,3 26,8 20,8 17,5 23 12 41 22 WSW 1019,8 34 22 0,0
19.06.2018 12:00:00 23,0 12,2 26,6 25,7 20,5 17,5 25 13 42 23 WSW 1019,4 34 33 0,0
19.06.2018 11:00:00 21,3 11,6 - - - 17,4 21 12 36 19 W 1019,5 53 15 0,0
19.06.2018 10:00:00 - - - - - - 19 10 31 17 W - - - -
19.06.2018 09:00:00 - - - - - - 22 12 35 19 W - - - -
19.06.2018 08:00:00 - - - - - - 14 8 27 15 WSW - - - -
19.06.2018 07:00:00 - - - - - - 14 8 23 12 WSW - - - -
19.06.2018 06:00:00 - - - - - - 10 5 14 7 WSW - - - -
19.06.2018 05:00:00 - - - - - - 7 4 14 8 SW - - - -
19.06.2018 04:00:00 - - - - - - 9 5 20 11 WSW - - - -
19.06.2018 03:00:00 - - - - - - 13 7 21 11 SW - - - -
19.06.2018 02:00:00 - - - - - - 12 6 17 9 SSW - - - -
19.06.2018 01:00:00 - - - - - - 11 6 15 8 S - - - -
19.06.2018 00:00:00 - - - - - - 7 4 10 6 S - - - -
18.06.2018 23:00:00 - - - - - - 8 4 12 6 SW - - - -
18.06.2018 22:00:00 - - - - - - 8 4 18 10 SW - - - -
18.06.2018 21:00:00 - - - - - - 11 6 18 10 SW - - - -
18.06.2018 20:00:00 - - - - - - 10 6 22 12 SSW - - - -
18.06.2018 19:00:00 - - - - - - 16 9 27 15 SW - - - -
18.06.2018 18:00:00 - - - - - - 16 8 32 17 WSW - - - -
18.06.2018 17:00:00 - - - - - - 17 9 32 18 W - - - -
18.06.2018 16:00:00 - - - - - - 18 10 26 14 WSW - - - -
18.06.2018 15:00:00 - - - - - - 19 10 27 15 W - - - -

tt = temperature
td = dewpoint
tt 5cm = temperature 5cm
tt -5cm = temperature -5cm
tt -20cm = temperature -20cm
tt -100cm = temperature -100cm
ff = wind speed
fx = gusts
dd = wind direction
ppp = reduced air pressure
vv = visibility
sd = sunshine duration
rr = precipitation

Next stations